Location: Dattensoll
(49.9928°N, 9.8954°E)
Time: 07:05:50
(UTC+00:00)

Spot 2 Rocket - Pass Details

Date: 19 May 2025
Orbit: 753 x 766 km, 98.3° (Epoch: 14 June)

Event Time Altitude Azimuth Distance (km) Brightness Sun altitude
Exits shadow 20:17:41 - 163° (SSE) 2,326 5.4 -9.6°
Reaches altitude 10° 20:17:48 10° 163° (SSE) 2,274 5.4 -9.6°
Maximum altitude 20:22:50 89° 71° (ENE) 763 3.5 -10.2°
Drops below altitude 10° 20:27:54 10° 346° (NNW) 2,297 7.1 -10.7°
Sets 20:30:12 0° 346° (NNW) 3,228 8.0 -10.9°
